Location: *
(57.8420°S, 159.8600°W)
Time: 05:13:23
(UTC+00:00)

Cosmos 1655 Rocket - Pass Details

Date: 18 May 2021
Orbit: 970 x 1006 km, 82.9° (Epoch: 20 June)

Event Time Altitude Azimuth Distance (km) Brightness Sun altitude
Rises 05:43:00 0° 347° (NNW) 3,707 7.2 -25.4°
Reaches altitude 10° 05:45:30 10° 346° (NNW) 2,771 6.5 -25.7°
Maximum altitude 05:51:54 82° 258° (WSW) 1,029 4.1 -26.6°
Drops below altitude 10° 05:58:25 10° 168° (SSE) 2,820 6.3 -27.4°
Sets 06:01:00 0° 167° (SSE) 3,778 7.0 -27.8°
